Weather History for Mora, MN

Change the Weather History Date:

Sunday, May 10, 2009

  Actual Average Record
Temperature  
Mean Temperature 45 °F -  
Max Temperature 53 °F 67 °F 87 °F (1987)
Min Temperature 37 °F 39 °F 24 °F (1945)
Degree Days  
Heating Degree Days 20    
Moisture  
Dew Point 33 °F    
Average Humidity 67    
Maximum Humidity 87    
Minimum Humidity 35    
Precipitation  
Precipitation 0.03 in - - ()
Sea Level Pressure  
Sea Level Pressure 30.18 in    
Wind  
Wind Speed 4 mph (NNW)    
Max Wind Speed 9 mph    
Max Gust Speed -    
Visibility 10 miles    
Events Rain    
Averages and records for this station are not official NWS values.
T = Trace of Precipitation, MM = Missing Value Source: NWS Daily Summary

Daily Weather History Graph

Daily Weather History Graph

Search for Another Location

Airport:

Trip Planner

Search our weather history database for the weather conditions in past years. The results will help you decide how hot, cold, wet, or windy it might be!

Date:

Astronomy

May. 10, 2009 Rise Set
Actual Time 5:47 AM CDT 8:32 PM CDT
Civil Twilight 5:12 AM CDT 9:06 PM CDT
Nautical Twilight 4:29 AM CDT 9:50 PM CDT
Astronomical Twilight 3:38 AM CDT 10:41 PM CDT
Moon 10:44 PM CDT (5/10) 6:10 AM CDT (5/10)
Length of Visible Light 15h 54m
Length of Day
14h 45m
Full, 98% of the Moon is Illuminated
May 10
Full
May 17
Last Quarter
May 24
New
May 30
First Quarter
Jun 7
Full

Hourly Weather History & Observations

Time (CDT) Temp. Windchill Dew Point Humidity Pressure Visibility Wind Dir Wind Speed Gust Speed Precip Events Conditions
12:17 AM 42.8 °F 38.6 °F 37.4 °F 81% 30.11 in 10.0 mi NNW 6.9 mph - N/A Rain Light Rain
12:37 AM 41.0 °F 37.1 °F 37.4 °F 87% 30.12 in 10.0 mi North 5.8 mph - N/A Rain Light Rain
12:57 AM 39.2 °F 33.0 °F 35.6 °F 87% 30.13 in 7.0 mi North 9.2 mph - 0.01 in Rain Heavy Rain
1:17 AM 37.4 °F 33.8 °F 33.8 °F 87% 30.13 in 7.0 mi North 4.6 mph - 0.01 in Rain Heavy Rain
1:37 AM 37.4 °F 34.9 °F 33.8 °F 87% 30.13 in 10.0 mi North 3.5 mph - 0.02 in   Drizzle
1:57 AM 37.4 °F 34.9 °F 33.8 °F 87% 30.13 in 10.0 mi North 3.5 mph - 0.02 in   Light Drizzle
2:17 AM 37.4 °F - 33.8 °F 87% 30.13 in 10.0 mi Calm Calm - N/A   Light Drizzle
2:37 AM 37.4 °F - 33.8 °F 87% 30.13 in 10.0 mi Calm Calm - N/A   Light Drizzle
2:57 AM 37.4 °F - 33.8 °F 87% 30.14 in 10.0 mi Calm Calm - N/A   Drizzle
3:17 AM 37.4 °F 33.8 °F 33.8 °F 87% 30.14 in 10.0 mi NNW 4.6 mph - N/A   Light Drizzle
3:37 AM 37.4 °F - 33.8 °F 87% 30.14 in 10.0 mi Calm Calm - N/A Rain Light Rain
3:57 AM 37.4 °F 34.9 °F 33.8 °F 87% 30.15 in 10.0 mi NW 3.5 mph - N/A   Light Drizzle
4:17 AM 37.4 °F 34.9 °F 33.8 °F 87% 30.15 in 10.0 mi NW 3.5 mph - N/A   Drizzle
4:37 AM 37.4 °F 33.8 °F 33.8 °F 87% 30.16 in 10.0 mi NW 4.6 mph - N/A   Light Drizzle
4:57 AM 37.4 °F 33.8 °F 33.8 °F 87% 30.16 in 10.0 mi North 4.6 mph - N/A   Light Drizzle
5:17 AM 37.4 °F - 32.0 °F 81% 30.16 in 10.0 mi Calm Calm - N/A   Light Drizzle
5:37 AM 37.4 °F - 32.0 °F 81% 30.16 in 10.0 mi Calm Calm - N/A   Light Drizzle
5:57 AM 37.4 °F - 33.8 °F 87% 30.17 in 10.0 mi Calm Calm - N/A   Overcast
6:17 AM 37.4 °F - 33.8 °F 87% 30.18 in 10.0 mi Calm Calm - N/A   Overcast
6:37 AM 37.4 °F 34.9 °F 33.8 °F 87% 30.18 in 10.0 mi NNW 3.5 mph - N/A   Overcast
6:57 AM 37.4 °F - 32.0 °F 81% 30.19 in 10.0 mi Calm Calm - N/A   Overcast
7:17 AM 39.2 °F 35.9 °F 32.0 °F 75% 30.19 in 10.0 mi North 4.6 mph - N/A   Overcast
7:37 AM 39.2 °F 35.9 °F 32.0 °F 75% 30.19 in 10.0 mi North 4.6 mph - N/A   Overcast
8:17 AM 39.2 °F 37.0 °F 32.0 °F 75% 30.20 in 10.0 mi North 3.5 mph - N/A   Scattered Clouds
8:37 AM 41.0 °F 38.0 °F 33.8 °F 76% 30.20 in 10.0 mi North 4.6 mph - N/A   Scattered Clouds
8:57 AM 41.0 °F - 33.8 °F 76% 30.21 in 10.0 mi Calm Calm - N/A   Mostly Cloudy
9:17 AM 44.6 °F 42.2 °F 35.6 °F 71% 30.21 in 10.0 mi NW 4.6 mph - N/A   Mostly Cloudy
9:37 AM 42.8 °F 40.1 °F 33.8 °F 70% 30.21 in 10.0 mi North 4.6 mph - N/A   Overcast
9:57 AM 44.6 °F - 35.6 °F 71% 30.22 in 10.0 mi Calm Calm - N/A   Overcast
10:17 AM 44.6 °F 40.7 °F 33.8 °F 66% 30.22 in 10.0 mi NNW 6.9 mph - N/A   Overcast
10:37 AM 42.8 °F 39.3 °F 33.8 °F 70% 30.22 in 10.0 mi NNW 5.8 mph - N/A   Overcast
10:57 AM 44.6 °F 40.7 °F 33.8 °F 66% 30.22 in 10.0 mi North 6.9 mph - N/A   Overcast
11:17 AM 44.6 °F 40.2 °F 33.8 °F 66% 30.22 in 10.0 mi North 8.1 mph - N/A   Overcast
11:37 AM 44.6 °F 39.7 °F 33.8 °F 66% 30.22 in 10.0 mi NNW 9.2 mph - N/A   Overcast
11:57 AM 46.4 °F 41.9 °F 33.8 °F 62% 30.22 in 10.0 mi NW 9.2 mph - N/A   Mostly Cloudy
12:17 PM 46.4 °F 42.4 °F 32.0 °F 57% 30.21 in 10.0 mi WNW 8.1 mph - N/A   Mostly Cloudy
12:37 PM 44.6 °F 41.4 °F 32.0 °F 61% 30.22 in 10.0 mi West 5.8 mph - N/A   Overcast
12:57 PM 44.6 °F 40.2 °F 32.0 °F 61% 30.22 in 10.0 mi NW 8.1 mph - N/A   Overcast
1:17 PM 48.2 °F - 32.0 °F 54% 30.22 in 10.0 mi Calm Calm - N/A   Overcast
1:37 PM 50.0 °F - 32.0 °F 50% 30.21 in 10.0 mi WSW 3.5 mph - N/A   Overcast
1:57 PM 50.0 °F - 32.0 °F 50% 30.21 in 10.0 mi Calm Calm - N/A   Overcast
2:17 PM 50.0 °F - 32.0 °F 50% 30.21 in 10.0 mi NNW 4.6 mph - N/A   Overcast
2:37 PM 51.8 °F - 33.8 °F 50% 30.20 in 10.0 mi WNW 6.9 mph - N/A   Mostly Cloudy
2:57 PM 51.8 °F - 32.0 °F 47% 30.20 in 10.0 mi Calm Calm - N/A   Mostly Cloudy
3:17 PM 50.0 °F - 30.2 °F 47% 30.19 in 10.0 mi ENE 6.9 mph - N/A   Mostly Cloudy
3:37 PM 50.0 °F - 30.2 °F 47% 30.19 in 10.0 mi Calm Calm - N/A   Overcast
3:57 PM 50.0 °F - 30.2 °F 47% 30.18 in 10.0 mi Calm Calm - N/A   Mostly Cloudy
4:17 PM 51.8 °F - 32.0 °F 47% 30.18 in 10.0 mi WNW 8.1 mph - N/A   Scattered Clouds
4:37 PM 53.6 °F - 30.2 °F 41% 30.18 in 10.0 mi NW 3.5 mph - N/A   Scattered Clouds
4:57 PM 53.6 °F - 30.2 °F 41% 30.17 in 10.0 mi WNW 9.2 mph - N/A   Clear
5:17 PM 51.8 °F - 30.2 °F 44% 30.18 in 10.0 mi Calm Calm - N/A   Scattered Clouds
5:37 PM 50.0 °F - 28.4 °F 43% 30.18 in 10.0 mi NW 4.6 mph - N/A   Clear
5:57 PM 53.6 °F - 30.2 °F 41% 30.18 in 10.0 mi Calm Calm - N/A   Clear
6:17 PM 53.6 °F - 28.4 °F 38% 30.17 in 10.0 mi WNW 8.1 mph - N/A   Clear
6:37 PM 53.6 °F - 28.4 °F 38% 30.17 in 10.0 mi NW 4.6 mph - N/A   Clear
6:57 PM 53.6 °F - 26.6 °F 35% 30.17 in 10.0 mi NW 5.8 mph - N/A   Clear
7:17 PM 53.6 °F - 26.6 °F 35% 30.16 in 10.0 mi NW 4.6 mph - N/A   Clear
7:37 PM 53.6 °F - 26.6 °F 35% 30.16 in 10.0 mi NW 5.8 mph - N/A   Clear
7:57 PM 53.6 °F - 28.4 °F 38% 30.16 in 10.0 mi WSW 3.5 mph - N/A   Clear
8:37 PM 50.0 °F - 28.4 °F 43% 30.17 in 10.0 mi WSW 3.5 mph - N/A   Clear
8:57 PM 50.0 °F - 30.2 °F 47% 30.17 in 10.0 mi WSW 3.5 mph - N/A   Clear
9:17 PM 46.4 °F 44.3 °F 30.2 °F 53% 30.18 in 10.0 mi SSW 4.6 mph - N/A   Clear
9:37 PM 44.6 °F 42.2 °F 32.0 °F 61% 30.18 in 10.0 mi SW 4.6 mph - N/A   Clear
9:57 PM 44.6 °F 43.1 °F 32.0 °F 61% 30.18 in 10.0 mi SW 3.5 mph - N/A   Clear
10:17 PM 44.6 °F - 32.0 °F 61% 30.18 in 10.0 mi Calm Calm - N/A   Clear
10:37 PM 44.6 °F - 32.0 °F 61% 30.19 in 10.0 mi Calm Calm - N/A   Clear
10:57 PM 42.8 °F - 32.0 °F 66% 30.19 in 10.0 mi Calm Calm - N/A   Clear
11:17 PM 37.4 °F - 32.0 °F 81% 30.19 in 10.0 mi Calm Calm - N/A   Clear
11:37 PM 37.4 °F - 32.0 °F 81% 30.19 in 10.0 mi Calm Calm - N/A   Clear
11:57 PM 37.4 °F - 32.0 °F 81% 30.19 in 10.0 mi Calm Calm - N/A   Clear